Tracking 22130 objects as of 21-Jan-2021
HD Live streaming from Space Station
objects crossing your sky now

STARLINK-1585

Track STARLINK-1585 now!
10-day predictions
STARLINK-1585 is classified as:


NORAD ID: 46117
Int'l Code: 2020-057A
Perigee: 554.5 km
Apogee: 556.2 km
Inclination: 53.0 °
Period: 95.6 minutes
Semi major axis: 6926 km
RCS: Unknown
Launch date: August 18, 2020
Source: United States (US)
Launch site: AIR FORCE EASTERN TEST RANGE (AFETR)
aabbcc
Your satellite tracking list
Your tracking list is empty




NASA's NSSDC Master Catalog

Two Line Element Set (TLE):
1 46117U 20057A   21021.51145144  .00047528  00000-0  32159-2 0  9992
2 46117  53.0036  65.6328 0001272  83.6487 276.4646 15.06077474 24671
Source of the keplerian elements: AFSPC